sat.trackr.live / text

‹ back to catalog

AETHER-5

NORAD 67376 · 2026-004P

PAYLOAD ACTIVE UNKNOWN

§ Identity

Operator
Country
CA
Launch date
2026-01-11
Launch site
AFWTR
Launch vehicle
Mass (kg)
RCS (m²)

External: N2YO · Heavens-Above · Gunter

§ Orbital elements

Epoch: 2026-09-20T22:56:28.762080Z

Period
96.91 min
Inclination
97.8112°
Eccentricity
0.0000890
Mean motion
14.85883573 rev/d
Perigee alt
610.2 km
Apogee alt
611.4 km
Semi-major
6,989.0 km
B*
4.7559e-5
RAAN
260.7670°
Arg perigee
162.3038°
Mean anomaly
197.8208°
Rev number
3,751

§ Raw data

AETHER-51 67376U 26004P   26263.95588845  .00000361  00000+0  47559-4 0  99952 67376  97.8112 260.7670 0000890 162.3038 197.8208 14.85883573 37510

JSON: /api/v1/satellites/67376 · /tle

For live sub-satellite position, see the globe view (requires WebGL).

§ Visibility from observer

Set your observer location to see the next 7 days of passes ≥ 10°. The values pass through the URL so the page stays shareable.

No JS? Fill the form by hand. The geolocation button needs JavaScript.